Stations météo

Publicité
Palma De Mallorca/Son San Ju, Espagne (8306): Température de l'air & dewpoint: 16.09.2018 05:00:00 - 22.09.2018 05:00:00 (CEST)Palma De Mallorca/Son San Ju, Espagne (8306): Vitesse du vent: 16.09.2018 05:00:00 - 22.09.2018 05:00:00 (CEST)Palma De Mallorca/Son San Ju, Espagne (8306): Direction du vent: 16.09.2018 05:00:00 - 22.09.2018 05:00:00 (CEST)Palma De Mallorca/Son San Ju, Espagne (8306): reduced air pressure: 16.09.2018 05:00:00 - 22.09.2018 05:00:00 (CEST)Palma De Mallorca/Son San Ju, Espagne (8306): visibility: 16.09.2018 05:00:00 - 22.09.2018 05:00:00 (CEST)
Date & Time tt [°C] td [°C] ff [km/h] ff [knt] dd ppp [hPa] vv [km]
22.09.2018 05:00:00 - - - - - - -
22.09.2018 04:00:00 20,6 19,9 2 1 N 1020,8 10
22.09.2018 03:00:00 20,8 19,8 5 3 NE 1020,9 10
22.09.2018 02:00:00 20,9 19,7 5 3 N 1020,8 10
22.09.2018 01:00:00 21,3 20,3 8 4 ENE 1020,6 10
22.09.2018 00:00:00 21,9 20,2 2 1 - 1020,3 10
21.09.2018 23:00:00 23,3 20,6 5 3 WSW 1019,8 10
21.09.2018 22:00:00 25,2 21,7 8 4 SW 1019,2 10
21.09.2018 21:00:00 25,7 20,9 8 4 SW 1018,7 10
21.09.2018 20:00:00 26,0 20,6 18 10 SW 1018,1 30
21.09.2018 19:00:00 27,0 20,3 16 9 SW 1017,7 10
21.09.2018 18:00:00 27,8 20,9 18 10 SSW 1017,2 10
21.09.2018 17:00:00 28,1 20,8 22 12 SW 1017,2 10
21.09.2018 16:00:00 28,9 21,2 22 12 SSW 1017,1 10
21.09.2018 15:00:00 29,1 19,8 22 12 SW 1017,5 10
21.09.2018 14:00:00 28,2 21,1 21 11 SW 1018,1 10
21.09.2018 13:00:00 28,4 21,1 18 10 SW 1018,3 10
21.09.2018 12:00:00 28,1 20,4 13 7 SW 1018,4 10
21.09.2018 11:00:00 26,8 19,7 11 6 WSW 1018,2 30
21.09.2018 10:00:00 24,3 18,2 2 1 - 1017,9 10
21.09.2018 09:00:00 20,2 18,5 0 0 N 1017,6 10
21.09.2018 08:00:00 17,3 16,5 2 1 - 1017,3 10
21.09.2018 07:00:00 17,0 16,4 5 3 NNE 1016,7 10
21.09.2018 06:00:00 17,6 17,1 4 2 - 1016,6 10
21.09.2018 05:00:00 17,6 17,1 5 3 NE 1016,6 10
21.09.2018 04:00:00 18,1 17,3 5 3 E 1017,0 10
21.09.2018 03:00:00 18,7 17,9 4 2 ENE 1017,2 10
21.09.2018 02:00:00 19,4 18,4 5 3 E 1017,5 18
21.09.2018 01:00:00 20,5 19,3 0 0 N 1017,7 10
21.09.2018 00:00:00 20,9 19,4 4 2 - 1018,0 10
20.09.2018 23:00:00 21,8 19,9 4 2 NE 1018,0 10
20.09.2018 22:00:00 22,6 19,9 0 0 N 1017,9 10
20.09.2018 21:00:00 24,0 20,1 5 3 ESE 1017,6 10
20.09.2018 20:00:00 26,0 20,1 11 6 SW 1017,4 30
20.09.2018 19:00:00 26,8 20,7 13 7 SSW 1017,7 10
20.09.2018 18:00:00 27,6 19,7 18 10 SW 1017,7 10
20.09.2018 17:00:00 28,2 18,7 22 12 SW 1018,1 30
20.09.2018 16:00:00 28,5 19,2 22 12 SW 1018,3 10
20.09.2018 15:00:00 28,6 19,0 21 11 SW 1018,6 10
20.09.2018 14:00:00 30,1 16,9 11 6 WSW 1019,0 10
20.09.2018 13:00:00 30,1 16,7 5 3 WNW 1019,5 10
20.09.2018 12:00:00 28,9 16,1 5 3 N 1020,0 10
20.09.2018 11:00:00 27,2 18,0 2 1 - 1020,2 10
20.09.2018 10:00:00 24,0 19,5 4 2 - 1020,1 10
20.09.2018 09:00:00 20,3 18,8 2 1 - 1020,0 10
20.09.2018 08:00:00 17,6 17,0 4 2 - 1019,8 10
20.09.2018 07:00:00 17,6 17,0 4 2 NE 1019,7 10
20.09.2018 06:00:00 17,9 17,3 4 2 N 1019,6 10
20.09.2018 05:00:00 18,3 17,7 5 3 NE 1019,8 10
20.09.2018 04:00:00 18,7 17,8 5 3 NE 1019,9 10
20.09.2018 03:00:00 19,5 18,7 0 0 N 1020,3 10
20.09.2018 02:00:00 19,6 18,8 4 2 NNE 1020,5 10
20.09.2018 01:00:00 20,8 19,6 8 4 E 1020,7 10
20.09.2018 00:00:00 21,3 19,8 2 1 - 1020,8 10
19.09.2018 23:00:00 22,1 20,2 8 4 NNE 1020,7 10
19.09.2018 22:00:00 23,1 20,4 5 3 NE 1020,5 10
19.09.2018 21:00:00 24,8 20,5 5 3 E 1019,7 10
19.09.2018 20:00:00 26,7 20,2 2 1 - 1019,3 10
19.09.2018 19:00:00 27,9 19,7 8 4 S 1019,1 10
19.09.2018 18:00:00 28,7 19,3 4 2 - 1019,0 10
19.09.2018 17:00:00 29,0 18,7 5 3 S 1019,1 10
19.09.2018 16:00:00 27,1 19,3 9 5 SE 1019,7 10
19.09.2018 15:00:00 26,2 19,4 8 4 E 1019,8 10
19.09.2018 14:00:00 26,8 19,3 15 8 NE 1019,8 10
19.09.2018 13:00:00 28,2 19,0 4 2 NW 1020,0 10
19.09.2018 12:00:00 27,4 19,2 5 3 NW 1020,1 10
19.09.2018 11:00:00 26,5 19,3 2 1 NNW 1020,1 10
19.09.2018 10:00:00 24,6 20,1 4 2 - 1019,5 10
19.09.2018 09:00:00 21,1 19,0 2 1 N 1019,0 10
19.09.2018 08:00:00 20,4 19,4 5 3 ENE 1018,6 10
19.09.2018 07:00:00 20,0 18,7 5 3 N 1018,2 10
19.09.2018 06:00:00 20,4 19,2 2 1 - 1017,9 10
19.09.2018 05:00:00 21,0 19,8 0 0 N 1017,6 10
19.09.2018 04:00:00 21,3 20,3 8 4 NE 1017,8 10
19.09.2018 03:00:00 21,9 20,5 4 2 NE 1017,9 10
19.09.2018 02:00:00 22,7 20,8 4 2 NNE 1018,2 10
19.09.2018 01:00:00 23,2 20,7 0 0 N 1018,4 10
19.09.2018 00:00:00 23,6 20,7 0 0 N 1018,4 10
18.09.2018 23:00:00 23,5 21,0 8 4 NE 1018,1 10
18.09.2018 22:00:00 24,5 20,5 0 0 N 1017,7 10
18.09.2018 21:00:00 24,4 20,5 5 3 ENE 1017,0 10
18.09.2018 20:00:00 25,3 20,5 9 5 NE 1016,4 10
18.09.2018 19:00:00 26,4 20,7 8 4 E 1016,2 10
18.09.2018 18:00:00 27,0 19,9 11 6 E 1016,3 10
18.09.2018 17:00:00 27,0 20,2 13 7 ENE 1016,6 10
18.09.2018 16:00:00 27,6 19,3 16 9 NE 1016,7 10
18.09.2018 15:00:00 28,9 20,7 22 12 SW 1016,4 10
18.09.2018 14:00:00 28,8 21,6 16 9 SW 1016,5 10
18.09.2018 13:00:00 28,6 21,4 13 7 SW 1016,5 10
18.09.2018 12:00:00 29,1 19,3 5 3 SSE 1016,5 10
18.09.2018 11:00:00 27,5 19,2 8 4 NW 1017,0 10
18.09.2018 10:00:00 26,0 20,4 0 0 N 1016,9 10
18.09.2018 09:00:00 23,6 21,4 2 1 - 1016,7 10
18.09.2018 08:00:00 22,2 21,4 4 2 NNE 1016,2 18
18.09.2018 07:00:00 22,3 21,6 4 2 - 1015,9 10
18.09.2018 06:00:00 22,4 21,6 4 2 - 1015,3 10
18.09.2018 05:00:00 22,3 21,8 5 3 N 1015,8 10
18.09.2018 04:00:00 21,8 21,3 8 4 E 1016,3 10
18.09.2018 03:00:00 22,0 21,3 8 4 ENE 1016,9 10
18.09.2018 02:00:00 22,1 21,4 4 2 E 1017,1 15
18.09.2018 01:00:00 21,7 20,9 8 4 NE 1017,2 10
18.09.2018 00:00:00 22,5 21,1 8 4 ESE 1016,9 10
17.09.2018 23:00:00 22,5 21,1 4 2 - 1017,3 10
17.09.2018 22:00:00 22,8 21,6 5 3 NE 1017,3 10
17.09.2018 21:00:00 23,3 21,6 8 4 ENE 1016,9 10
17.09.2018 20:00:00 24,4 22,0 2 1 - 1016,7 10
17.09.2018 19:00:00 25,3 21,8 13 7 ENE 1016,5 10
17.09.2018 18:00:00 25,6 22,5 5 3 E 1016,6 10
17.09.2018 17:00:00 26,8 23,1 4 2 S 1017,0 10
17.09.2018 16:00:00 25,7 22,6 11 6 SW 1017,7 10
17.09.2018 15:00:00 29,7 19,8 5 3 NE 1018,1 10
17.09.2018 14:00:00 30,2 19,6 11 6 NE 1017,9 30
17.09.2018 13:00:00 29,8 20,3 11 6 NE 1018,6 10
17.09.2018 12:00:00 28,2 20,9 15 8 ENE 1019,1 10
17.09.2018 11:00:00 27,0 21,3 13 7 NE 1019,3 10
17.09.2018 10:00:00 25,6 22,0 5 3 NE 1019,3 10
17.09.2018 09:00:00 22,9 21,2 9 5 NNE 1019,4 9
17.09.2018 08:00:00 21,1 20,1 8 4 E 1019,1 25
17.09.2018 07:00:00 21,1 20,3 4 2 - 1018,6 10
17.09.2018 06:00:00 21,4 20,3 4 2 ENE 1018,5 10
17.09.2018 05:00:00 21,6 20,9 4 2 - 1018,1 10
17.09.2018 04:00:00 22,0 21,2 4 2 - 1018,7 10
17.09.2018 03:00:00 22,8 22,0 0 0 N 1019,1 10
17.09.2018 02:00:00 23,1 21,9 8 4 NE 1019,7 20
17.09.2018 01:00:00 23,5 22,3 5 3 SE 1020,0 10
17.09.2018 00:00:00 23,6 22,2 8 4 NNE 1020,0 10
16.09.2018 23:00:00 24,7 22,2 8 4 E 1020,6 10
16.09.2018 22:00:00 25,1 22,2 8 4 ENE 1019,9 10
16.09.2018 21:00:00 25,4 21,7 5 3 E 1019,6 10
16.09.2018 20:00:00 26,0 21,2 9 5 ENE 1019,1 10
16.09.2018 19:00:00 27,1 21,8 13 7 NE 1018,7 10
16.09.2018 18:00:00 27,7 21,3 5 3 ENE 1018,7 10
16.09.2018 17:00:00 28,2 21,3 9 5 W 1019,3 30
16.09.2018 16:00:00 28,4 21,8 18 10 WSW 1019,3 10
16.09.2018 15:00:00 28,5 22,1 18 10 SSW 1019,2 10
16.09.2018 14:00:00 28,3 22,5 24 13 SW 1019,8 10
16.09.2018 13:00:00 28,7 21,0 8 4 NNE 1019,6 10
16.09.2018 12:00:00 27,6 21,6 11 6 NE 1019,6 10
16.09.2018 11:00:00 26,3 21,5 11 6 NE 1020,2 10
16.09.2018 10:00:00 24,5 21,4 9 5 ENE 1020,3 10
16.09.2018 09:00:00 22,5 21,0 5 3 E 1020,3 10
16.09.2018 08:00:00 21,2 20,2 5 3 ENE 1020,2 10
16.09.2018 07:00:00 21,1 20,1 0 0 N 1019,5 10
16.09.2018 06:00:00 20,8 20,0 4 2 - 1019,1 10
16.09.2018 05:00:00 20,5 19,8 5 3 NE 1019,5 10

tt = Température de l'air
td = dewpoint
ff = Vitesse du vent
dd = Direction du vent
ppp = reduced air pressure
vv = visibility

stations d'obs. à proximité